Time,TemperatureF,DewpointF,PressureIn,WindDirection,WindDirectionDegrees,WindSpeedMPH,WindSpeedGustMPH,Humidity,HourlyPrecipIn,Conditions,Clouds,dailyrainin,SoftwareType,DateUTC
2013-04-05 00:00:00,42.2,14.5,29.94,West,278,2.0,6.0,32,0.00,,CLR,0.00,VWS V14.01,2013-04-05 04:00:00,
2013-04-05 00:02:00,42.2,14.5,29.94,West,263,3.0,6.0,32,0.00,,CLR,0.00,VWS V14.01,2013-04-05 04:02:00,
2013-04-05 00:08:00,42.3,14.6,29.93,West,281,2.0,4.0,32,0.00,,CLR,0.00,VWS V14.01,2013-04-05 04:08:00,
2013-04-05 00:13:00,42.2,14.5,29.93,West,263,3.0,4.0,32,0.00,,CLR,0.00,VWS V14.01,2013-04-05 04:13:00,
2013-04-05 00:18:00,42.0,13.6,29.93,West,260,3.0,4.0,31,0.00,,CLR,0.00,VWS V14.01,2013-04-05 04:18:00,
2013-04-05 00:24:00,41.8,14.1,29.93,WSW,250,3.0,4.0,32,0.00,,CLR,0.00,VWS V14.01,2013-04-05 04:24:00,
2013-04-05 00:29:00,41.8,13.4,29.93,WSW,253,3.0,4.0,31,0.00,,CLR,0.00,VWS V14.01,2013-04-05 04:29:00,
2013-04-05 00:30:00,41.7,14.0,29.92,WSW,255,2.0,4.0,32,0.00,,BKN055,0.00,VWS V14.01,2013-04-05 04:30:00,
2013-04-05 00:34:00,41.6,14.6,29.92,West,260,3.0,4.0,33,0.00,,CLR,0.00,VWS V14.01,2013-04-05 04:34:00,
2013-04-05 00:39:00,41.3,13.7,29.92,WSW,253,2.0,4.0,32,0.00,,CLR,0.00,VWS V14.01,2013-04-05 04:39:00,
2013-04-05 00:44:00,41.2,13.6,29.92,WSW,250,3.0,4.0,32,0.00,,CLR,0.00,VWS V14.01,2013-04-05 04:44:00,
2013-04-05 00:50:00,41.1,14.2,29.92,West,267,3.0,5.0,33,0.00,,CLR,0.00,VWS V14.01,2013-04-05 04:50:00,
2013-04-05 00:55:00,41.0,14.1,29.92,West,265,3.0,6.0,33,0.00,,CLR,0.00,VWS V14.01,2013-04-05 04:55:00,
2013-04-05 01:00:00,40.8,13.9,29.92,West,265,3.0,6.0,33,0.00,,CLR,0.00,VWS V14.01,2013-04-05 05:00:00,
2013-04-05 01:05:00,40.9,14.0,29.92,WSW,243,3.0,4.0,33,0.00,,CLR,0.00,VWS V14.01,2013-04-05 05:05:00,
2013-04-05 01:10:00,41.0,14.1,29.92,West,266,2.0,5.0,33,0.00,,CLR,0.00,VWS V14.01,2013-04-05 05:10:00,
2013-04-05 01:15:00,40.7,13.9,29.92,West,262,2.0,5.0,33,0.00,,CLR,0.00,VWS V14.01,2013-04-05 05:15:00,
2013-04-05 01:20:00,40.7,13.9,29.92,WSW,257,3.0,5.0,33,0.00,,CLR,0.00,VWS V14.01,2013-04-05 05:20:00,
2013-04-05 01:25:00,40.8,13.9,29.92,WSW,256,2.0,5.0,33,0.00,,CLR,0.00,VWS V14.01,2013-04-05 05:25:00,
2013-04-05 01:30:00,40.6,13.8,29.92,West,268,2.0,5.0,33,0.00,,CLR,0.00,VWS V14.01,2013-04-05 05:30:00,
2013-04-05 01:36:00,40.5,14.4,29.92,WSW,257,3.0,4.0,34,0.00,,CLR,0.00,VWS V14.01,2013-04-05 05:36:00,
2013-04-05 01:41:00,40.4,14.9,29.92,WSW,248,3.0,4.0,35,0.00,,CLR,0.00,VWS V14.01,2013-04-05 05:41:00,
2013-04-05 01:46:00,40.3,14.8,29.92,West,262,3.0,4.0,35,0.00,,CLR,0.00,VWS V14.01,2013-04-05 05:46:00,
2013-04-05 01:51:00,40.3,14.8,29.91,West,269,4.0,6.0,35,0.00,,CLR,0.00,VWS V14.01,2013-04-05 05:51:00,
2013-04-05 01:56:00,40.2,14.8,29.91,West,267,3.0,6.0,35,0.00,,CLR,0.00,VWS V14.01,2013-04-05 05:56:00,
2013-04-05 02:00:00,40.2,14.8,29.91,WSW,252,3.0,6.0,35,0.00,,BKN055,0.00,VWS V14.01,2013-04-05 06:00:00,
2013-04-05 02:01:00,40.2,14.1,29.91,West,263,3.0,6.0,34,0.00,,CLR,0.00,VWS V14.01,2013-04-05 06:01:00,
2013-04-05 02:07:00,40.2,14.1,29.91,West,264,3.0,5.0,34,0.00,,CLR,0.00,VWS V14.01,2013-04-05 06:07:00,
2013-04-05 02:12:00,40.0,14.6,29.91,West,263,3.0,5.0,35,0.00,,CLR,0.00,VWS V14.01,2013-04-05 06:12:00,
2013-04-05 02:17:00,40.0,14.6,29.91,West,262,3.0,5.0,35,0.00,,CLR,0.00,VWS V14.01,2013-04-05 06:17:00,
2013-04-05 02:22:00,40.0,15.2,29.91,West,260,5.0,6.0,36,0.00,,CLR,0.00,VWS V14.01,2013-04-05 06:22:00,
2013-04-05 02:27:00,39.9,15.1,29.91,West,270,4.0,6.0,36,0.00,,CLR,0.00,VWS V14.01,2013-04-05 06:27:00,
2013-04-05 02:30:00,39.8,15.0,29.91,West,271,4.0,6.0,36,0.00,,BKN055,0.00,VWS V14.01,2013-04-05 06:30:00,
2013-04-05 02:32:00,39.8,15.0,29.91,West,272,3.0,6.0,36,0.00,,CLR,0.00,VWS V14.01,2013-04-05 06:32:00,
2013-04-05 02:37:00,39.7,14.9,29.91,West,259,3.0,5.0,36,0.00,,CLR,0.00,VWS V14.01,2013-04-05 06:37:00,
2013-04-05 02:42:00,39.6,14.9,29.91,WSW,252,4.0,5.0,36,0.00,,CLR,0.00,VWS V14.01,2013-04-05 06:42:00,
2013-04-05 02:48:00,39.7,14.9,29.91,WSW,256,3.0,5.0,36,0.00,,CLR,0.00,VWS V14.01,2013-04-05 06:48:00,
2013-04-05 02:53:00,39.4,14.7,29.90,WSW,248,5.0,5.0,36,0.00,,CLR,0.00,VWS V14.01,2013-04-05 06:53:00,
2013-04-05 02:58:00,39.1,15.0,29.90,WSW,257,3.0,5.0,37,0.00,,CLR,0.00,VWS V14.01,2013-04-05 06:58:00,
2013-04-05 03:00:00,39.0,14.9,29.90,WSW,255,4.0,5.0,37,0.00,,BKN055,0.00,VWS V14.01,2013-04-05 07:00:00,
2013-04-05 03:03:00,39.0,14.9,29.90,WSW,239,4.0,4.0,37,0.00,,CLR,0.00,VWS V14.01,2013-04-05 07:03:00,
2013-04-05 03:08:00,38.9,15.5,29.90,West,266,3.0,5.0,38,0.00,,CLR,0.00,VWS V14.01,2013-04-05 07:08:00,
2013-04-05 03:13:00,39.0,14.9,29.89,WSW,258,4.0,5.0,37,0.00,,CLR,0.00,VWS V14.01,2013-04-05 07:13:00,
2013-04-05 03:18:00,39.2,15.1,29.89,West,260,3.0,6.0,37,0.00,,CLR,0.00,VWS V14.01,2013-04-05 07:18:00,
2013-04-05 03:23:00,39.1,15.6,29.88,WSW,257,5.0,6.0,38,0.00,,CLR,0.00,VWS V14.01,2013-04-05 07:23:00,
2013-04-05 03:29:00,39.1,15.6,29.88,West,269,4.0,6.0,38,0.00,,CLR,0.00,VWS V14.01,2013-04-05 07:29:00,
2013-04-05 03:30:00,39.3,15.8,29.88,West,262,3.0,6.0,38,0.00,,BKN055,0.00,VWS V14.01,2013-04-05 07:30:00,
2013-04-05 03:34:00,39.3,15.8,29.88,WSW,253,4.0,4.0,38,0.00,,CLR,0.00,VWS V14.01,2013-04-05 07:34:00,
2013-04-05 03:39:00,39.3,15.8,29.88,West,267,2.0,5.0,38,0.00,,CLR,0.00,VWS V14.01,2013-04-05 07:39:00,
2013-04-05 03:44:00,39.3,15.2,29.89,WSW,245,4.0,5.0,37,0.00,,CLR,0.00,VWS V14.01,2013-04-05 07:44:00,
2013-04-05 03:50:00,39.3,15.8,29.88,WSW,256,3.0,5.0,38,0.00,,CLR,0.00,VWS V14.01,2013-04-05 07:50:00,
2013-04-05 03:55:00,39.1,15.6,29.89,WSW,257,3.0,5.0,38,0.00,,CLR,0.00,VWS V14.01,2013-04-05 07:55:00,
2013-04-05 04:00:00,38.9,15.5,29.88,WSW,249,3.0,5.0,38,0.00,,CLR,0.00,VWS V14.01,2013-04-05 08:00:00,
2013-04-05 04:05:00,38.6,16.4,29.88,WSW,245,2.0,4.0,40,0.00,,CLR,0.00,VWS V14.01,2013-04-05 08:05:00,
2013-04-05 04:10:00,38.5,16.3,29.89,WSW,250,2.0,4.0,40,0.00,,CLR,0.00,VWS V14.01,2013-04-05 08:10:00,
2013-04-05 04:16:00,38.5,15.7,29.89,WSW,248,2.0,4.0,39,0.00,,CLR,0.00,VWS V14.01,2013-04-05 08:16:00,
2013-04-05 04:21:00,38.9,16.6,29.90,NW,316,1.0,4.0,40,0.00,,CLR,0.00,VWS V14.01,2013-04-05 08:21:00,
2013-04-05 04:26:00,37.9,16.9,29.90,NW,319,1.0,4.0,42,0.00,,CLR,0.00,VWS V14.01,2013-04-05 08:26:00,
2013-04-05 04:30:00,37.4,17.0,29.90,WSW,245,0.0,4.0,43,0.00,,BKN055,0.00,VWS V14.01,2013-04-05 08:30:00,
2013-04-05 04:31:00,37.3,16.9,29.90,WSW,243,1.0,4.0,43,0.00,,CLR,0.00,VWS V14.01,2013-04-05 08:31:00,
2013-04-05 04:36:00,37.4,18.0,29.90,West,273,0.0,1.0,45,0.00,,CLR,0.00,VWS V14.01,2013-04-05 08:36:00,
2013-04-05 04:42:00,36.7,17.9,29.90,WNW,301,0.0,2.0,46,0.00,,CLR,0.00,VWS V14.01,2013-04-05 08:42:00,
2013-04-05 04:47:00,36.1,17.3,29.90,WNW,300,0.0,2.0,46,0.00,,CLR,0.00,VWS V14.01,2013-04-05 08:47:00,
2013-04-05 04:52:00,35.9,17.1,29.90,NNE,12,0.0,2.0,46,0.00,,CLR,0.00,VWS V14.01,2013-04-05 08:52:00,
2013-04-05 04:57:00,36.0,17.2,29.90,WSW,245,1.0,2.0,46,0.00,,CLR,0.00,VWS V14.01,2013-04-05 08:57:00,
2013-04-05 05:00:00,36.5,17.2,29.90,SSW,205,0.0,2.0,45,0.00,,BKN055,0.00,VWS V14.01,2013-04-05 09:00:00,
2013-04-05 05:02:00,36.5,17.2,29.90,SSW,205,0.0,2.0,45,0.00,,CLR,0.00,VWS V14.01,2013-04-05 09:02:00,
2013-04-05 05:07:00,36.7,16.9,29.90,SSE,163,0.0,1.0,44,0.00,,CLR,0.00,VWS V14.01,2013-04-05 09:07:00,
2013-04-05 05:12:00,36.8,17.0,29.90,SW,225,0.0,1.0,44,0.00,,CLR,0.00,VWS V14.01,2013-04-05 09:12:00,
2013-04-05 05:17:00,36.8,17.5,29.90,NW,315,0.0,2.0,45,0.00,,CLR,0.00,VWS V14.01,2013-04-05 09:17:00,
2013-04-05 05:23:00,36.1,17.3,29.90,NW,315,0.0,2.0,46,0.00,,CLR,0.00,VWS V14.01,2013-04-05 09:23:00,
2013-04-05 05:28:00,35.8,17.1,29.91,NW,315,0.0,2.0,46,0.00,,CLR,0.00,VWS V14.01,2013-04-05 09:28:00,
2013-04-05 05:30:00,35.6,16.9,29.91,NW,315,0.0,2.0,46,0.00,,BKN055,0.00,VWS V14.01,2013-04-05 09:30:00,
2013-04-05 05:33:00,35.6,16.9,29.91,NW,315,0.0,0.0,46,0.00,,CLR,0.00,VWS V14.01,2013-04-05 09:33:00,
2013-04-05 05:38:00,35.6,17.4,29.91,NW,317,0.0,0.0,47,0.00,,CLR,0.00,VWS V14.01,2013-04-05 09:38:00,
2013-04-05 05:43:00,35.3,17.6,29.91,NNW,331,0.0,1.0,48,0.00,,CLR,0.00,VWS V14.01,2013-04-05 09:43:00,
2013-04-05 05:48:00,35.5,17.8,29.91,NNW,340,0.0,1.0,48,0.00,,CLR,0.00,VWS V14.01,2013-04-05 09:48:00,
2013-04-05 05:53:00,35.5,17.8,29.91,NNW,340,0.0,1.0,48,0.00,,CLR,0.00,VWS V14.01,2013-04-05 09:53:00,
2013-04-05 05:58:00,35.8,18.0,29.91,NNW,340,0.0,1.0,48,0.00,,CLR,0.00,VWS V14.01,2013-04-05 09:58:00,
2013-04-05 06:00:00,36.3,17.5,29.91,NNW,340,0.0,1.0,46,0.00,,BKN055,0.00,VWS V14.01,2013-04-05 10:00:00,
2013-04-05 06:04:00,36.4,17.6,29.91,NNW,340,0.0,0.0,46,0.00,,CLR,0.00,VWS V14.01,2013-04-05 10:04:00,
2013-04-05 06:09:00,36.9,18.1,29.92,NNW,340,0.0,0.0,46,0.00,,CLR,0.00,VWS V14.01,2013-04-05 10:09:00,
2013-04-05 06:14:00,37.3,18.9,29.91,SW,226,0.0,2.0,47,0.00,,CLR,0.00,VWS V14.01,2013-04-05 10:14:00,
2013-04-05 06:19:00,37.6,18.2,29.92,WSW,239,1.0,2.0,45,0.00,,CLR,0.00,VWS V14.01,2013-04-05 10:19:00,
2013-04-05 06:24:00,37.9,18.0,29.92,WNW,283,1.0,3.0,44,0.00,,CLR,0.00,VWS V14.01,2013-04-05 10:24:00,
2013-04-05 06:29:00,38.1,18.1,29.92,NW,319,1.0,4.0,44,0.00,,CLR,0.00,VWS V14.01,2013-04-05 10:29:00,
2013-04-05 06:30:00,38.2,18.8,29.92,NNE,18,0.0,4.0,45,0.00,,BKN055,0.00,VWS V14.01,2013-04-05 10:30:00,
2013-04-05 06:35:00,38.2,18.8,29.92,NNE,32,3.0,5.0,45,0.00,,CLR,0.00,VWS V14.01,2013-04-05 10:35:00,
2013-04-05 06:40:00,38.2,18.8,29.92,WNW,297,1.0,6.0,45,0.00,,CLR,0.00,VWS V14.01,2013-04-05 10:40:00,
2013-04-05 06:45:00,38.1,19.7,29.93,North,351,0.0,6.0,47,0.00,,CLR,0.00,VWS V14.01,2013-04-05 10:45:00,
2013-04-05 06:50:00,38.0,20.5,29.93,WSW,253,0.0,6.0,49,0.00,,CLR,0.00,VWS V14.01,2013-04-05 10:50:00,
2013-04-05 06:55:00,37.8,21.3,29.93,WNW,287,2.0,6.0,51,0.00,,CLR,0.00,VWS V14.01,2013-04-05 10:55:00,
2013-04-05 07:00:00,37.7,21.7,29.93,West,262,1.0,6.0,52,0.00,,CLR,0.00,VWS V14.01,2013-04-05 11:00:00,
2013-04-05 07:05:00,37.6,22.0,29.93,West,276,0.0,1.0,53,0.00,,CLR,0.00,VWS V14.01,2013-04-05 11:05:00,
2013-04-05 07:10:00,37.5,21.9,29.93,SSW,211,1.0,4.0,53,0.00,,CLR,0.00,VWS V14.01,2013-04-05 11:10:00,
2013-04-05 07:15:00,37.4,22.3,29.94,WSW,258,1.0,4.0,54,0.00,,CLR,0.00,VWS V14.01,2013-04-05 11:15:00,
2013-04-05 07:20:00,37.3,23.1,29.94,West,264,2.0,4.0,56,0.00,,CLR,0.00,VWS V14.01,2013-04-05 11:20:00,
2013-04-05 07:25:00,37.3,23.9,29.94,West,263,1.0,4.0,58,0.00,,CLR,0.00,VWS V14.01,2013-04-05 11:25:00,
2013-04-05 07:30:00,37.2,24.2,29.95,West,263,1.0,4.0,59,0.00,,CLR,0.00,VWS V14.01,2013-04-05 11:30:00,
2013-04-05 07:35:00,37.2,24.6,29.95,SW,229,2.0,3.0,60,0.00,,CLR,0.00,VWS V14.01,2013-04-05 11:35:00,
2013-04-05 07:41:00,37.2,25.4,29.95,SW,235,0.0,3.0,62,0.00,,CLR,0.00,VWS V14.01,2013-04-05 11:41:00,
2013-04-05 07:47:00,37.3,26.3,29.95,WSW,248,1.0,3.0,64,0.00,,OVC090,0.00,VWS V14.01,2013-04-05 11:47:00,
2013-04-05 07:52:00,37.3,26.6,29.95,WSW,248,2.0,3.0,65,0.00,,OVC090,0.00,VWS V14.01,2013-04-05 11:52:00,
2013-04-05 07:57:00,37.4,27.1,29.95,SW,236,2.0,3.0,66,0.00,,OVC090,0.00,VWS V14.01,2013-04-05 11:57:00,
2013-04-05 08:00:00,37.5,27.2,29.95,WNW,284,1.0,3.0,66,0.00,,BKN055,0.00,VWS V14.01,2013-04-05 12:00:00,
2013-04-05 08:02:00,37.5,27.2,29.95,WSW,244,1.0,3.0,66,0.00,,OVC090,0.00,VWS V14.01,2013-04-05 12:02:00,
2013-04-05 08:07:00,37.6,27.6,29.95,West,273,1.0,2.0,67,0.00,,OVC090,0.00,VWS V14.01,2013-04-05 12:07:00,
2013-04-05 08:12:00,37.7,27.4,29.95,WSW,257,2.0,3.0,66,0.00,,OVC090,0.00,VWS V14.01,2013-04-05 12:12:00,
2013-04-05 08:18:00,37.9,27.6,29.95,West,269,2.0,4.0,66,0.00,,OVC090,0.00,VWS V14.01,2013-04-05 12:18:00,
2013-04-05 08:23:00,37.9,27.6,29.95,West,259,2.0,4.0,66,0.00,,OVC090,0.00,VWS V14.01,2013-04-05 12:23:00,
2013-04-05 08:28:00,38.0,27.7,29.95,WSW,255,1.0,4.0,66,0.00,,OVC090,0.00,VWS V14.01,2013-04-05 12:28:00,
2013-04-05 08:30:00,38.0,27.7,29.95,WSW,257,2.0,4.0,66,0.00,,BKN055,0.00,VWS V14.01,2013-04-05 12:30:00,
2013-04-05 08:33:00,38.0,27.3,29.95,WSW,255,3.0,3.0,65,0.00,,OVC032,0.00,VWS V14.01,2013-04-05 12:33:00,
2013-04-05 08:38:00,38.3,27.2,29.95,West,276,2.0,3.0,64,0.00,,OVC032,0.00,VWS V14.01,2013-04-05 12:38:00,
2013-04-05 08:43:00,38.7,27.2,29.95,WSW,242,4.0,4.0,63,0.00,,OVC032,0.00,VWS V14.01,2013-04-05 12:43:00,
2013-04-05 08:48:00,39.3,27.0,29.95,WSW,245,1.0,4.0,61,0.00,,OVC032,0.00,VWS V14.01,2013-04-05 12:48:00,
2013-04-05 08:54:00,39.9,27.2,29.95,West,281,3.0,4.0,60,0.00,,OVC032,0.00,VWS V14.01,2013-04-05 12:54:00,
2013-04-05 08:59:00,40.5,27.3,29.94,NNW,335,6.0,9.0,59,0.00,,OVC032,0.00,VWS V14.01,2013-04-05 12:59:00,
2013-04-05 09:00:00,40.6,27.0,29.95,West,260,2.0,9.0,58,0.00,,BKN055,0.00,VWS V14.01,2013-04-05 13:00:00,
2013-04-05 09:04:00,40.6,26.6,29.94,NNW,336,2.0,8.0,57,0.00,,OVC032,0.00,VWS V14.01,2013-04-05 13:04:00,
2013-04-05 09:09:00,40.7,27.1,29.94,North,5,0.0,8.0,58,0.00,,OVC032,0.00,VWS V14.01,2013-04-05 13:09:00,
2013-04-05 09:14:00,41.0,27.8,29.94,WSW,238,3.0,8.0,59,0.00,,OVC032,0.00,VWS V14.01,2013-04-05 13:14:00,
2013-04-05 09:19:00,41.2,27.6,29.94,WNW,284,1.0,8.0,58,0.00,,OVC032,0.00,VWS V14.01,2013-04-05 13:19:00,
2013-04-05 09:25:00,41.5,27.8,29.94,West,263,2.0,8.0,58,0.00,,OVC032,0.00,VWS V14.01,2013-04-05 13:25:00,
2013-04-05 09:30:00,41.8,28.5,29.94,NW,307,3.0,8.0,59,0.00,,OVC032,0.00,VWS V14.01,2013-04-05 13:30:00,
2013-04-05 09:35:00,42.1,28.4,29.94,North,11,1.0,5.0,58,0.00,,BKN040,0.00,VWS V14.01,2013-04-05 13:35:00,
2013-04-05 09:40:00,42.2,28.9,29.94,West,275,2.0,11.0,59,0.00,,BKN040,0.00,VWS V14.01,2013-04-05 13:40:00,
2013-04-05 09:45:00,42.4,28.3,29.94,NW,314,2.0,11.0,57,0.00,,BKN040,0.00,VWS V14.01,2013-04-05 13:45:00,
2013-04-05 09:50:00,42.8,28.6,29.94,NNW,338,6.0,11.0,57,0.00,,BKN040,0.00,VWS V14.01,2013-04-05 13:50:00,
2013-04-05 09:55:00,42.6,28.0,29.94,NW,325,5.0,11.0,56,0.00,,BKN040,0.00,VWS V14.01,2013-04-05 13:55:00,
2013-04-05 10:00:00,42.7,28.5,29.94,WNW,283,2.0,11.0,57,0.00,,BKN055,0.00,VWS V14.01,2013-04-05 14:00:00,
2013-04-05 10:01:00,42.6,28.0,29.94,NW,305,2.0,11.0,56,0.00,,BKN040,0.00,VWS V14.01,2013-04-05 14:01:00,
2013-04-05 10:07:00,42.8,28.6,29.94,West,276,3.0,10.0,57,0.00,,BKN040,0.00,VWS V14.01,2013-04-05 14:07:00,
2013-04-05 10:12:00,42.9,28.3,29.94,WNW,293,1.0,10.0,56,0.00,,BKN040,0.00,VWS V14.01,2013-04-05 14:12:00,
2013-04-05 10:17:00,43.1,28.5,29.94,NNW,329,2.0,13.0,56,0.00,,BKN040,0.00,VWS V14.01,2013-04-05 14:17:00,
2013-04-05 10:22:00,43.1,28.0,29.94,West,260,2.0,13.0,55,0.00,,BKN040,0.00,VWS V14.01,2013-04-05 14:22:00,
2013-04-05 10:27:00,43.4,29.2,29.94,WNW,283,1.0,13.0,57,0.00,,BKN040,0.00,VWS V14.01,2013-04-05 14:27:00,
2013-04-05 10:30:00,44.1,29.0,29.94,SW,235,3.0,13.0,55,0.00,,BKN055,0.00,VWS V14.01,2013-04-05 14:30:00,
2013-04-05 10:32:00,44.0,29.3,29.94,WNW,283,6.0,13.0,56,0.00,,CLR,0.00,VWS V14.01,2013-04-05 14:32:00,
2013-04-05 10:37:00,43.9,27.9,29.94,West,276,3.0,10.0,53,0.00,,CLR,0.00,VWS V14.01,2013-04-05 14:37:00,
2013-04-05 10:42:00,43.9,28.8,29.95,West,263,4.0,10.0,55,0.00,,CLR,0.00,VWS V14.01,2013-04-05 14:42:00,
2013-04-05 10:47:00,44.1,28.5,29.94,SW,226,4.0,11.0,54,0.00,,CLR,0.00,VWS V14.01,2013-04-05 14:47:00,
2013-04-05 10:52:00,44.2,28.2,29.94,WSW,257,4.0,11.0,53,0.00,,CLR,0.00,VWS V14.01,2013-04-05 14:52:00,
2013-04-05 10:57:00,44.4,28.4,29.94,WSW,247,6.0,11.0,53,0.00,,CLR,0.00,VWS V14.01,2013-04-05 14:57:00,
2013-04-05 11:00:00,44.9,28.4,29.94,West,281,2.0,11.0,52,0.00,,BKN055,0.00,VWS V14.01,2013-04-05 15:00:00,
2013-04-05 11:02:00,44.9,28.4,29.94,West,281,2.0,11.0,52,0.00,,CLR,0.00,VWS V14.01,2013-04-05 15:02:00,
2013-04-05 11:08:00,44.8,26.8,29.94,West,259,4.0,9.0,49,0.00,,CLR,0.00,VWS V14.01,2013-04-05 15:08:00,
2013-04-05 11:13:00,44.7,26.2,29.94,West,275,6.0,16.0,48,0.00,,CLR,0.00,VWS V14.01,2013-04-05 15:13:00,
2013-04-05 11:18:00,44.3,26.4,29.95,WSW,241,4.0,16.0,49,0.00,,CLR,0.00,VWS V14.01,2013-04-05 15:18:00,
2013-04-05 11:23:00,44.5,27.5,29.95,West,267,3.0,16.0,51,0.00,,CLR,0.00,VWS V14.01,2013-04-05 15:23:00,
2013-04-05 11:28:00,44.3,27.8,29.95,NNE,18,5.0,16.0,52,0.00,,CLR,0.00,VWS V14.01,2013-04-05 15:28:00,
2013-04-05 11:33:00,44.3,26.9,29.95,West,267,5.0,6.0,50,0.00,,CLR,0.00,VWS V14.01,2013-04-05 15:33:00,
2013-04-05 11:39:00,44.2,27.7,29.95,NNE,25,2.0,12.0,52,0.00,,CLR,0.00,VWS V14.01,2013-04-05 15:39:00,
2013-04-05 11:44:00,44.7,27.7,29.95,WNW,290,3.0,12.0,51,0.00,,CLR,0.00,VWS V14.01,2013-04-05 15:44:00,
2013-04-05 11:49:00,44.6,27.1,29.95,WNW,283,3.0,13.0,50,0.00,,CLR,0.00,VWS V14.01,2013-04-05 15:49:00,
2013-04-05 11:55:00,45.0,27.5,29.95,NW,311,5.0,14.0,50,0.00,,CLR,0.00,VWS V14.01,2013-04-05 15:55:00,
2013-04-05 12:00:00,45.2,27.7,29.95,NNW,336,3.0,14.0,50,0.00,,CLR,0.00,VWS V14.01,2013-04-05 16:00:00,
2013-04-05 12:05:00,45.3,28.2,29.95,West,267,8.0,11.0,51,0.00,,CLR,0.00,VWS V14.01,2013-04-05 16:05:00,
2013-04-05 12:10:00,45.2,27.7,29.95,WSW,239,3.0,11.0,50,0.00,,CLR,0.00,VWS V14.01,2013-04-05 16:10:00,
2013-04-05 12:15:00,45.6,28.0,29.95,West,266,1.0,11.0,50,0.00,,CLR,0.00,VWS V14.01,2013-04-05 16:15:00,
2013-04-05 12:20:00,45.9,26.8,29.95,WSW,249,3.0,11.0,47,0.00,,CLR,0.00,VWS V14.01,2013-04-05 16:20:00,
2013-04-05 12:25:00,46.1,27.5,29.95,NNE,15,8.0,15.0,48,0.00,,CLR,0.00,VWS V14.01,2013-04-05 16:25:00,
2013-04-05 12:30:00,45.2,27.2,29.95,WSW,253,2.0,15.0,49,0.00,,CLR,0.00,VWS V14.01,2013-04-05 16:30:00,
2013-04-05 12:36:00,45.5,28.0,29.95,WNW,293,4.0,13.0,50,0.00,,FEW045,0.00,VWS V14.01,2013-04-05 16:36:00,
2013-04-05 12:42:00,45.9,27.3,29.95,NNE,17,3.0,13.0,48,0.00,,FEW045,0.00,VWS V14.01,2013-04-05 16:42:00,
2013-04-05 12:47:00,45.7,28.1,29.95,West,260,3.0,13.0,50,0.00,,FEW045,0.00,VWS V14.01,2013-04-05 16:47:00,
2013-04-05 12:52:00,46.0,26.9,29.95,West,277,1.0,13.0,47,0.00,,FEW045,0.00,VWS V14.01,2013-04-05 16:52:00,
2013-04-05 12:57:00,46.3,27.7,29.95,West,275,3.0,13.0,48,0.00,,FEW045,0.00,VWS V14.01,2013-04-05 16:57:00,
2013-04-05 13:02:00,46.4,27.3,29.95,SW,235,5.0,13.0,47,0.00,,FEW045,0.00,VWS V14.01,2013-04-05 17:02:00,
2013-04-05 13:30:00,44.7,25.7,29.95,NW,322,7.0,14.0,47,0.00,,BKN055,0.00,VWS V14.01,2013-04-05 17:30:00,
2013-04-05 14:00:00,44.9,25.9,29.95,North,11,7.0,14.0,47,0.00,,BKN055,0.00,VWS V14.01,2013-04-05 18:00:00,
2013-04-05 14:30:00,43.9,27.4,29.95,NNW,345,2.0,13.0,52,0.00,,BKN055,0.00,VWS V14.01,2013-04-05 18:30:00,
2013-04-05 15:00:00,42.6,27.1,29.96,NW,312,4.0,14.0,54,0.00,,BKN055,0.00,VWS V14.01,2013-04-05 19:00:00,
2013-04-05 15:30:00,41.9,26.5,29.96,NNE,25,2.0,13.0,54,0.00,,BKN055,0.00,VWS V14.01,2013-04-05 19:30:00,
2013-04-05 16:00:00,40.8,25.5,29.96,SSW,192,2.0,14.0,54,0.00,,BKN055,0.00,VWS V14.01,2013-04-05 20:00:00,
2013-04-05 16:30:00,41.6,25.3,29.97,North,6,8.0,13.0,52,0.00,,BKN055,0.00,VWS V14.01,2013-04-05 20:30:00,
2013-04-05 17:00:00,42.3,24.5,29.97,North,4,8.0,11.0,49,0.00,,BKN055,0.00,VWS V14.01,2013-04-05 21:00:00,
2013-04-05 17:30:00,41.0,25.6,29.98,WSW,250,4.0,12.0,54,0.00,,BKN055,0.00,VWS V14.01,2013-04-05 21:30:00,
2013-04-05 18:00:00,39.6,26.9,30.00,WSW,256,2.0,9.0,60,0.00,,BKN055,0.00,VWS V14.01,2013-04-05 22:00:00,
2013-04-05 18:30:00,38.7,25.6,30.01,WNW,299,3.0,11.0,59,0.00,,BKN055,0.00,VWS V14.01,2013-04-05 22:30:00,
2013-04-05 19:00:00,37.2,24.2,30.03,NW,311,4.0,13.0,59,0.00,,BKN055,0.00,VWS V14.01,2013-04-05 23:00:00,
2013-04-05 19:30:00,36.3,23.4,30.04,West,277,1.0,8.0,59,0.00,,BKN055,0.00,VWS V14.01,2013-04-05 23:30:00,
2013-04-05 19:50:00,35.7,22.4,30.04,WSW,239,0.0,1.0,58,0.00,,FEW045,0.00,VWS V14.01,2013-04-05 23:50:00,
2013-04-05 19:56:00,35.5,22.2,30.05,West,266,3.0,6.0,58,0.00,,FEW045,0.00,VWS V14.01,2013-04-05 23:56:00,
2013-04-05 20:01:00,35.2,21.9,30.05,SW,225,1.0,6.0,58,0.00,,FEW045,0.00,VWS V14.01,2013-04-06 00:01:00,
2013-04-05 20:06:00,35.1,22.2,30.05,NW,311,0.0,6.0,59,0.00,,BKN055,0.00,VWS V14.01,2013-04-06 00:06:00,
2013-04-05 20:11:00,34.9,22.0,30.06,West,270,0.0,6.0,59,0.00,,BKN055,0.00,VWS V14.01,2013-04-06 00:11:00,
2013-04-05 20:17:00,34.6,22.2,30.06,SW,222,2.0,6.0,60,0.00,,FEW048,0.00,VWS V14.01,2013-04-06 00:17:00,
2013-04-05 20:22:00,34.4,22.0,30.06,West,270,1.0,7.0,60,0.00,,FEW048,0.00,VWS V14.01,2013-04-06 00:22:00,
2013-04-05 20:27:00,34.3,21.9,30.06,West,277,0.0,7.0,60,0.00,,FEW048,0.00,VWS V14.01,2013-04-06 00:27:00,
2013-04-05 20:32:00,34.1,21.7,30.07,West,267,0.0,7.0,60,0.00,,FEW048,0.00,VWS V14.01,2013-04-06 00:32:00,
2013-04-05 20:37:00,34.0,21.6,30.07,SW,222,0.0,4.0,60,0.00,,FEW048,0.00,VWS V14.01,2013-04-06 00:37:00,
2013-04-05 20:42:00,33.8,21.0,30.07,NNE,25,1.0,7.0,59,0.00,,FEW048,0.00,VWS V14.01,2013-04-06 00:42:00,
2013-04-05 20:47:00,33.7,20.9,30.08,West,262,1.0,7.0,59,0.00,,FEW048,0.00,VWS V14.01,2013-04-06 00:47:00,
2013-04-05 20:52:00,33.4,20.6,30.08,North,6,1.0,7.0,59,0.00,,FEW048,0.00,VWS V14.01,2013-04-06 00:52:00,
2013-04-05 20:57:00,33.4,19.8,30.08,WNW,285,1.0,8.0,57,0.00,,FEW048,0.00,VWS V14.01,2013-04-06 00:57:00,
2013-04-05 21:03:00,33.3,20.1,30.09,NW,319,5.0,8.0,58,0.00,,FEW048,0.00,VWS V14.01,2013-04-06 01:03:00,
2013-04-05 21:08:00,33.1,19.9,30.09,WNW,294,1.0,5.0,58,0.00,,FEW048,0.00,VWS V14.01,2013-04-06 01:08:00,
2013-04-05 21:13:00,32.9,19.8,30.09,WSW,250,0.0,5.0,58,0.00,,FEW048,0.00,VWS V14.01,2013-04-06 01:13:00,
2013-04-05 21:18:00,32.7,20.0,30.10,WSW,255,1.0,5.0,59,0.00,,FEW048,0.00,VWS V14.01,2013-04-06 01:18:00,
2013-04-05 21:23:00,32.4,19.7,30.10,WSW,250,2.0,5.0,59,0.00,,FEW048,0.00,VWS V14.01,2013-04-06 01:23:00,
2013-04-05 21:28:00,32.3,20.0,30.10,West,260,1.0,5.0,60,0.00,,FEW048,0.00,VWS V14.01,2013-04-06 01:28:00,
2013-04-05 21:33:00,32.1,19.4,30.11,WSW,257,2.0,2.0,59,0.00,,CLR,0.00,VWS V14.01,2013-04-06 01:33:00,
2013-04-05 21:38:00,32.0,18.9,30.11,WSW,258,1.0,3.0,58,0.00,,CLR,0.00,VWS V14.01,2013-04-06 01:38:00,
2013-04-05 21:43:00,31.8,18.7,30.11,WSW,253,2.0,4.0,58,0.00,,CLR,0.00,VWS V14.01,2013-04-06 01:43:00,
2013-04-05 21:49:00,31.6,18.9,30.11,West,277,1.0,4.0,59,0.00,,CLR,0.00,VWS V14.01,2013-04-06 01:49:00,
2013-04-05 21:54:00,31.4,18.7,30.11,NW,306,5.0,5.0,59,0.00,,CLR,0.00,VWS V14.01,2013-04-06 01:54:00,
2013-04-05 21:59:00,31.5,18.4,30.12,NNW,340,1.0,11.0,58,0.00,,CLR,0.00,VWS V14.01,2013-04-06 01:59:00,
2013-04-05 22:04:00,31.4,18.7,30.12,WNW,284,2.0,2.0,59,0.00,,CLR,0.00,VWS V14.01,2013-04-06 02:04:00,
2013-04-05 22:09:00,31.2,19.0,30.12,NNW,340,3.0,5.0,60,0.00,,CLR,0.00,VWS V14.01,2013-04-06 02:09:00,
2013-04-05 22:15:00,31.0,19.1,30.12,West,270,0.0,5.0,61,0.00,,CLR,0.00,VWS V14.01,2013-04-06 02:15:00,
2013-04-05 22:20:00,30.8,19.3,30.12,West,281,0.0,5.0,62,0.00,,CLR,0.00,VWS V14.01,2013-04-06 02:20:00,
2013-04-05 22:25:00,30.6,19.1,30.12,SW,228,0.0,5.0,62,0.00,,CLR,0.00,VWS V14.01,2013-04-06 02:25:00,
2013-04-05 22:30:00,30.5,19.0,30.12,NW,308,4.0,5.0,62,0.00,,CLR,0.00,VWS V14.01,2013-04-06 02:30:00,
2013-04-05 22:35:00,30.6,19.5,30.12,West,263,1.0,2.0,63,0.00,,CLR,0.00,VWS V14.01,2013-04-06 02:35:00,
2013-04-05 22:40:00,30.5,19.4,30.12,WNW,284,0.0,7.0,63,0.00,,CLR,0.00,VWS V14.01,2013-04-06 02:40:00,
2013-04-05 22:45:00,30.3,19.2,30.12,West,266,0.0,7.0,63,0.00,,CLR,0.00,VWS V14.01,2013-04-06 02:45:00,
2013-04-05 22:51:00,30.2,19.5,30.12,West,260,1.0,7.0,64,0.00,,CLR,0.00,VWS V14.01,2013-04-06 02:51:00,
2013-04-05 22:56:00,30.1,19.4,30.12,West,264,1.0,7.0,64,0.00,,CLR,0.00,VWS V14.01,2013-04-06 02:56:00,
2013-04-05 23:01:00,30.1,19.8,30.13,SW,233,5.0,7.0,65,0.00,,CLR,0.00,VWS V14.01,2013-04-06 03:01:00,
2013-04-05 23:06:00,30.0,19.7,30.12,West,274,2.0,4.0,65,0.00,,CLR,0.00,VWS V14.01,2013-04-06 03:06:00,
2013-04-05 23:12:00,29.9,19.9,30.13,West,262,1.0,4.0,66,0.00,,CLR,0.00,VWS V14.01,2013-04-06 03:12:00,
2013-04-05 23:17:00,29.9,19.9,30.13,West,278,1.0,4.0,66,0.00,,CLR,0.00,VWS V14.01,2013-04-06 03:17:00,
2013-04-05 23:22:00,29.7,19.8,30.13,West,274,2.0,4.0,66,0.00,,CLR,0.00,VWS V14.01,2013-04-06 03:22:00,
2013-04-05 23:27:00,29.6,19.6,30.13,West,264,3.0,4.0,66,0.00,,CLR,0.00,VWS V14.01,2013-04-06 03:27:00,
2013-04-05 23:32:00,29.6,20.0,30.13,West,276,1.0,5.0,67,0.00,,CLR,0.00,VWS V14.01,2013-04-06 03:32:00,
2013-04-05 23:37:00,29.5,20.3,30.14,West,279,1.0,3.0,68,0.00,,CLR,0.00,VWS V14.01,2013-04-06 03:37:00,
2013-04-05 23:43:00,29.4,20.2,30.14,SSE,155,1.0,4.0,68,0.00,,CLR,0.00,VWS V14.01,2013-04-06 03:43:00,
2013-04-05 23:48:00,29.4,20.2,30.14,West,267,1.0,5.0,68,0.00,,CLR,0.00,VWS V14.01,2013-04-06 03:48:00,
2013-04-05 23:53:00,29.3,20.4,30.14,WNW,294,1.0,5.0,69,0.00,,CLR,0.00,VWS V14.01,2013-04-06 03:53:00,
2013-04-05 23:58:00,29.3,20.4,30.15,WSW,255,2.0,5.0,69,0.00,,CLR,0.00,VWS V14.01,2013-04-06 03:58:00,